Location: G�ndlingen
(48.0142°N, 7.6396°E)
Time: 03:01:25
(UTC+00:00)

Cosmos 773 Rocket - Pass Details

Date: 05 July 2020
Orbit: 746 x 776 km, 74.1° (Epoch: 04 August)

Event Time Altitude Azimuth Distance (km) Brightness Sun altitude
Rises 20:49:51 0° 193° (SSW) 3,242 6.9 -10.3°
Reaches altitude 10° 20:52:13 10° 192° (SSW) 2,320 6.1 -10.5°
Maximum altitude 20:57:28 71° 109° (ESE) 825 4.0 -11.1°
Drops below altitude 10° 21:02:44 10° 27° (NNE) 2,332 6.9 -11.6°
Sets 21:05:08 0° 25° (NNE) 3,260 7.7 -11.8°
